Погода в Нижнеангарске

Погода в Нижнеангарске : погода сейчас, прогноз погоды и архив. Всё, что Вы хотите узнать о погоде в Нижнеангарске!

Поиск расширенной информации на нашем сайте:

Другие новости

Новости СМИ2

Главная страница сайта

Новости сайта

03.07.2017

Напоминаем, что на нашем специализированном сайте Метеоцентр.Азия вы можете получить высокодетализированные автоматические прогнозы погоды по пунктам России, СНГ и мира в авиационном формате (включающие направление и скорость ветра, видимость, явления погоды, количество и форму облачности, нижнюю и верхнюю границу облачности).


Погода в Нижнеангарске - сегодня

Время (UTC), дата Ветер
(°,м/с) 
Видим.   Явления Облачность Т
(°С)
Тd
(°С)
f(%) Тe
(°С)
Pmin
(гПа)
dP
(гПа)
Po
(мм)
O2
(г/м3)
Тmin Tmax R s Состояние
почвы
09 23.07.17 060 (СВ) 20000 м    1/1 1000 м 
[Cu hum]
+22.9 +3.5 28 +23  1010.8  -0.7  718  266           
12 23.07.17 320 (СЗ) 20000 м    1/1 1000 м 
[Sc]
+18.6 +6.8 46 +20  1011.6  718  270    +23.6       
15 23.07.17 330 (СЗ) н/о    ясно 
+14.8 +6.6 58 +15  1013.7  1.3  719  274           
18 23.07.17 тихо ()   н/о    ясно 
+12.7 +7.1 69 +13  1014.4  0.3  719  276           
21 23.07.17 320 (СЗ) 20000 м    ясно 
+11.7 +7.2 74 +13  1014.3  -0.3  719  276           
00 24.07.17 200 (Ю) 20000 м    3/0 верхняя 
[Ci fib]
+15.9 +10.5 70 +19  1013.9  0.4  719  272  +10.9        влажная 
03 24.07.17 190 (Ю) 20000 м    1/1 1000 м 
[Cu hum]
+20.6 +10.4 52 +23  1012.1  -0.8  719  267           
06 24.07.17 210 (ЮЗ) 20000 м    3/3 1000 м 
[Cu hum]
+23.4 +6.7 34 +23  1009.7  -1.9  717  265           
09 24.07.17 190 (Ю) 20000 м    3/3 1000 м 
[Cu hum]
+26.2 -0.1 18 +26  1007.3  -1.9  716  263           
12 24.07.17 160 (Ю) 20000 м    3/3 1000 м 
[Sc]
+19.1 +9.7 54 +23  1008.1  -0.3  715  268    +26.3       
15 24.07.17 тихо ()   н/о    4/4 1000 м 
[Sc]
+15.5 +8.5 63 +16  1009.9  716  272           
18 24.07.17 320 (СЗ) н/о    3/3 1000 м 
[Sc]
+14.9 +7.3 60 +16  1009.5  -0.4  716  272           
21 24.07.17 320 (СЗ) 20000 м    3/3 1000 м 
[Sc]
+13.2 +7.4 68 +14  1009.3  -0.6  715  274           
00 25.07.17 190 (Ю) 20000 м    6/0 средняя, верхняя 
[Ac lent|Ci fib]
+17.9 +12.7 72 +25  1008.4  0.1  716  268  +13.1        влажная 
03 25.07.17 120 (ЮВ) 20000 м    8/3 1000 м верхняя 
[Cu med, cong|Ci fib]
+23.3 +11.5 47 +28  1006.2  -1.1  715  263           
06 25.07.17 200 (Ю) 20000 м    8/3 1000 м средняя, верхняя 
[Cu med, cong|Ac trans|Ci fib]
+26.3 +9 34 +27  1003.8  -1.8  713  261           
12 25.07.17 340 (С) 2{10}  20000 м  {гроза}  8/3 1000 м средняя, верхняя 
[Sc|Ac trans|Ci fib]
+22.4 +5.6 34 +22  1004.7  0.6  713  265    +27.2       
15 25.07.17 290 (З) н/о    4/0 средняя 
[Ac trans]
+16.7 +8.2 57 +18  1006.3  0.6  714  270           
18 25.07.17 320 (СЗ) н/о    3/0 средняя 
[Ac trans]
+15.3 +8.1 62 +16  1006.7  0.1  714  271           
21 25.07.17 тихо ()   20000 м    ясно 
+13.5 +9.2 75 +15  1007.8  0.7  714  273           
00 26.07.17 090 (В) 20000 м    6/0 верхняя 
[Ci fib]
+17.7 +14.2 80 +28  1007.5  0.6  715  268  +12.9        сухая 
03 26.07.17 190 (Ю) 20000 м    8/1 1000 м средняя, верхняя 
[Cu med, cong|Ac trans|Ci fib]
+18.9 +13.1 69 +27  1007.1  -0.2  715  267           
06 26.07.17 170 (Ю) 20000 м  гроза без осадков  8/6 1000 м кучево-дожд., верхняя 
[Cb cap|Ci fib]
+20.4 +11 55 +24  1006.3  -0.5  714  266           
09 26.07.17 230 (ЮЗ) 20000 м  гроза, ливневой дождь  9/5 1000 м кучево-дожд., средняя, верхняя 
[Cb cap|Ac trans|Ci fib]
+16 +15 94 +27  1007.4  0.3  715  269           
12 26.07.17 270 (З) 20000 м  {гроза, ливн. осадки}  8/0 средняя, верхняя 
[Ac trans|Ci sp]
+15.5 +14.7 95 +26  1007.5  715  269    +20.5     
Время (UTC), дата Ветер
(°,м/с) 
Видим.   Явления Облачность Т
(°С)
Тd
(°С)
f(%) Тe
(°С)
Pmin
(гПа)
dP
(гПа)
Po
(мм)
O2
(г/м3)
Тmin Tmax R s Состояние
почвы

Для получения пояснительной информации подведите курсор к названию столбца.

ПОГОДА в Нижнеангарске - архив

Всё, что Вы хотите узнать о погоде в Нижнеангарске - удобно и подробно!

Выберите нужную дату (начиная с 1 января 2015* года) и нажмите кнопку "Найти".
Будут отображены архивные сводки погоды по пункту Нижнеангарск, начиная с указанной даты.


Отображать данные в формате CSV (для использования в таблицах Excel)


Внимание! Наш архив погоды предназначен исключительно для личного некоммерческого использования в познавательных целях. Если Вам необходимы официальные справки о состоянии погоды (для производственных, юридических, коммерческих и т.п. целей), обращайтесь в органы Росгидромета.

*Примечание: данная дата относится к архиву по метеостанциям СССР (Россия, СНГ, Балтия).
Архив по метеостанциям Зарубежной Европы и Азии (кроме Китая) хранится 10 дней, по другим регионам земного шара (Китай, Африка, Америка, Австралия, Океания) - 1 день.

Нижнеангарск - район местоположения метеостанции


Название, широта, долгота, высота метеостанции:
Нижнеангарск 55.8°ш. 109.6°д. 487 м над ур. моря [Российская Федерация]

Дополнительная информация

В oтличие oт бoльшинства пoгoдных сайтoв мы публикуем пoдрoбную метеoинфoрмацию в детальнoм прoфессиoнальнoм фoрмате.

Характеристики температуры и влажнoсти вoздуха измеряются на высoте 2 м в тени вдали oт зданий и деревьев.
Скoрoсть ветра измеряется на высoте 10 м (на урoвне рoста челoвека скoрoсть ветра ниже в 1.5-2 раза). Если метеoстанция нахoдится в гoрoде или в лесу, тo скoрoсть ветра занижена на 2-4 м/с пo сравнению с oткрытым местoм. Скoрoсть ветра над акватoриями крупных рек и oзёр, а также на вершинах хoлмoв на 2-5 м/с выше, чем в oбычных услoвиях.
Атмoсфернoе давление в разных тoчках местнoсти мoжет значительнo oтличаться oт давления на метеoстанции, в зависимoсти oт услoвий рельефа (при пoдъёме на 10 м давление пoнижается примернo на 1 мм рт.ст.).